FW0274 Weather Reports


time (UTC)temp
C
wind
direction
speed
KPH
gust
KPH
rain 1hr
cm
rain 24hr
cm
rain mn
cm
humidity
%
barometer
mb
20260510190028 17 11 0.0 9.7 0.00 0.00 0.00 45 1016.8
20260510184521 17 294 0.0 9.7 0.00 0.00 0.00 44 1016.8
20260510183021 17 326 0.0 14.5 0.00 0.00 0.00 45 1016.7
20260510181525 17 20 0.0 8.0 0.00 0.00 0.00 50 1016.5
20260510180018 16 337 0.0 8.0 0.00 0.00 0.00 50 1016.6
20260510174517 16 74 0.0 9.7 0.00 0.00 0.00 45 1016.3
20260510173015 16 306 0.0 14.5 0.00 0.00 0.00 47 1016.4
20260510171515 16 57 0.0 6.4 0.00 0.00 0.00 50 1016.3
20260510170014 16 304 0.0 9.7 0.00 0.00 0.00 48 1016.4
20260510164515 16 36 0.0 4.8 0.00 0.00 0.00 49 1016.5
20260510163018 16 69 0.0 6.4 0.00 0.00 0.00 50 1016.5
20260510161513 16 32 0.0 8.0 0.00 0.00 0.00 54 1016.5
20260510160018 15 331 0.0 4.8 0.00 0.00 0.00 52 1016.4
20260510154510 15 349 0.0 3.2 0.00 0.03 0.00 58 1016.3
20260510153009 15 5 0.0 4.8 0.00 0.03 0.00 53 1015.9
20260510151507 15 71 0.0 6.4 0.00 0.03 0.00 55 1015.9
20260510150005 14 350 0.0 8.0 0.00 0.03 0.00 59 1015.5
20260510144510 14 44 0.0 3.2 0.00 0.03 0.00 58 1015.5
20260510143004 13 62 0.0 6.4 0.00 0.03 0.00 57 1015.4
20260510141502 13 31 0.0 8.0 0.00 0.03 0.00 62 1015.1
20260510140100 13 57 0.0 8.0 0.00 0.03 0.00 60 1014.9
20260510134607 12 49 0.0 9.7 0.00 0.03 0.00 60 1014.9
20260510133057 12 56 1.6 6.4 0.00 0.03 0.00 62 1014.8
20260510131556 12 18 0.0 6.4 0.00 0.03 0.00 63 1014.6
20260510130054 11 21 0.0 8.0 0.00 0.03 0.00 64 1014.4
20260510124600 11 28 0.0 0.0 0.00 0.03 0.00 66 1014.2
20260510123053 11 40 0.0 6.4 0.00 0.03 0.00 65 1014.1
20260510121550 11 42 0.0 0.0 0.00 0.03 0.00 67 1013.8
20260510120048 11 50 0.0 0.0 0.00 0.03 0.00 66 1013.7
20260510114546 11 46 0.0 0.0 0.00 0.03 0.00 66 1013.5
20260510113046 11 40 0.0 0.0 0.00 0.03 0.00 67 1013.5
20260510111543 11 38 0.0 0.0 0.00 0.03 0.00 71 1013.1
20260510110041 11 19 0.0 1.6 0.00 0.03 0.00 70 1012.7
20260510104539 11 36 0.0 6.4 0.00 0.05 0.00 70 1012.5
20260510101535 12 13 0.0 0.0 0.00 0.05 0.00 74 1012.1
20260510100032 12 34 0.0 0.0 0.00 0.05 0.00 73 1011.6
20260510094539 12 5 0.0 0.0 0.00 0.10 0.00 73 1011.5
20260510093027 13 19 0.0 0.0 0.00 0.10 0.00 73 1011.2
20260510091523 13 360 0.0 0.0 0.00 0.10 0.00 73 1010.6
20260510090020 13 37 0.0 6.4 0.00 0.10 0.00 73 1010.3
20260510084518 13 17 0.0 9.7 0.00 0.15 0.00 73 1010.0
20260510083016 14 13 0.0 6.4 0.00 0.15 0.00 73 1009.8
20260510081528 15 355 0.0 6.4 0.00 0.15 0.00 72 1009.7
20260510080009 15 338 0.0 1.6 0.00 0.15 0.00 73 1009.7
20260510074509 15 277 0.0 0.0 0.00 0.23 0.00 71 1009.6
20260510073009 15 305 0.0 6.4 0.00 0.23 0.00 70 1009.4
20260510071508 16 290 0.0 1.6 0.00 0.23 0.00 69 1009.6
20260510070007 16 311 0.0 6.4 0.00 0.23 0.00 68 1009.7
20260510064506 16 259 0.0 1.6 0.00 0.33 0.00 67 1009.4
20260510063006 16 291 0.0 6.4 0.00 0.33 0.00 67 1009.4
20260510061505 17 287 1.6 16.1 0.00 0.33 0.00 68 1009.4
20260510060001 16 243 0.0 8.0 0.00 0.36 0.00 71 1009.7
20260510054611 16 211 0.0 0.0 0.00 0.36 0.00 73 1009.6
20260510053058 15 225 0.0 0.0 0.00 0.36 0.00 73 1009.4
20260510051557 15 163 0.0 0.0 0.00 0.36 0.00 73 1009.2
20260510050056 15 287 0.0 0.0 0.00 0.36 0.00 73 1009.0
20260510044554 15 185 0.0 0.0 0.00 0.38 0.00 73 1009.1
20260510043052 15 189 0.0 0.0 0.00 0.38 0.00 72 1008.9
20260510041612 16 217 0.0 0.0 0.00 0.38 0.00 70 1008.8
20260510040048 16 190 0.0 0.0 0.00 0.38 0.00 69 1008.7
20260510034553 16 214 0.0 0.0 0.00 0.38 0.38 68 1008.5
20260510033051 17 217 0.0 0.0 0.00 0.38 0.38 67 1008.5
20260510031552 17 195 0.0 0.0 0.00 0.38 0.38 66 1008.4
20260510030046 17 215 0.0 0.0 0.00 0.38 0.38 66 1008.5
20260510024604 17 184 0.0 0.0 0.00 0.38 0.38 65 1008.4
20260510023044 18 203 0.0 0.0 0.00 0.38 0.38 64 1008.2
20260510021542 17 207 0.0 8.0 0.00 0.38 0.38 64 1008.1
20260510020042 18 184 0.0 1.6 0.00 0.38 0.38 63 1007.9
20260510014541 18 229 0.0 6.4 0.00 0.41 0.38 62 1007.7
20260510013054 18 215 0.0 0.0 0.00 0.41 0.38 61 1007.3
20260510011541 18 209 0.0 1.6 0.00 0.41 0.38 60 1007.2
20260510010040 18 204 0.0 0.0 0.00 0.41 0.38 60 1006.8
20260510004545 19 202 0.0 0.0 0.00 0.43 0.38 58 1006.9
20260510003040 19 211 0.0 8.0 0.00 0.43 0.38 56 1006.9
20260510001539 20 250 0.0 11.3 0.00 0.43 0.38 55 1006.4
20260510000039 20 223 0.0 12.9 0.00 0.43 0.38 54 1006.3
20260509234538 20 210 0.0 9.7 0.00 0.43 0.38 54 1006.2
20260509233037 20 244 1.6 12.9 0.00 0.43 0.38 53 1006.3
20260509231536 21 233 4.8 14.5 0.00 0.43 0.38 51 1006.2
20260509230035 21 229 0.0 17.7 0.00 0.43 0.38 53 1006.0
20260509224536 21 194 3.2 17.7 0.00 0.43 0.38 55 1005.9
20260509223043 21 229 1.6 14.5 0.00 0.43 0.38 57 1005.9
20260509221533 21 221 3.2 14.5 0.00 0.43 0.38 56 1006.0
20260509220033 21 225 0.0 14.5 0.00 0.43 0.38 57 1005.8
20260509214529 21 197 3.2 12.9 0.00 0.43 0.38 56 1006.0
20260509213028 21 209 4.8 12.9 0.00 0.43 0.38 56 1006.1
20260509211530 20 197 3.2 11.3 0.00 0.43 0.38 57 1006.3
20260509210029 21 319 0.0 12.9 0.00 0.43 0.38 58 1006.5
20260509204522 20 215 1.6 14.5 0.00 0.43 0.38 60 1006.6
20260509203024 20 198 0.0 12.9 0.00 0.43 0.38 61 1006.6
20260509201524 20 213 3.2 16.1 0.00 0.43 0.38 62 1006.9
20260509200015 20 188 0.0 16.1 0.00 0.43 0.38 61 1007.1
20260509194514 20 167 3.2 22.5 0.00 0.43 0.38 62 1007.0
20260509193014 20 157 0.0 11.3 0.00 0.43 0.38 61 1007.1
20260509191511 20 214 3.2 14.5 0.00 0.43 0.38 62 1007.2